EW6887 Weather Reports


Display with metric or nautical units.
time (UTC)temp
F
wind
direction
speed
MPH
gust
MPH
rain 1hr
in
rain 24hr
in
rain mn
in
humidity
%
barometer
mb
20190119081636 23 165 0.0 0.0 0.00 0.02 0.00 85 1020.8
20190119080054 20 165 0.0 0.0 0.00 0.02 0.00 88 1020.8
20190119073024 19 165 0.0 0.0 0.00 0.02 0.00 88 1020.7
20190119070021 18 150 0.0 0.0 0.00 0.02 0.00 88 1020.5
20190119061539 18 157 0.0 0.0 0.00 0.02 0.00 90 1020.5
20190119054527 17 157 0.0 0.0 0.00 0.02 0.00 90 1020.5
20190119051547 17 157 0.0 0.0 0.00 0.02 0.00 90 1020.4
20190119044613 17 157 0.0 0.0 0.00 0.02 0.00 89 1020.4
20190119041602 17 157 0.0 0.0 0.00 0.02 0.00 89 1020.3
20190119034652 17 157 0.0 0.0 0.00 0.02 0.00 90 1020.2
20190119033001 16 157 0.0 0.0 0.00 0.02 0.00 90 1020.3
20190119031740 16 157 0.0 0.0 0.00 0.02 0.00 90 1020.2
20190119024644 16 159 0.0 0.0 0.00 0.02 0.00 89 1020.4
20190119020108 17 161 0.0 0.0 0.00 0.02 0.00 89 1020.6
20190119013125 17 159 0.0 0.0 0.00 0.02 0.00 89 1020.6
20190119010119 18 159 0.0 0.0 0.00 0.02 0.00 89 1020.6
20190119004518 18 159 0.0 0.0 0.00 0.02 0.00 89 1020.6
20190118230011 19 158 0.0 0.0 0.00 0.02 0.00 88 1020.4
20190118223126 19 159 0.0 0.0 0.00 0.02 0.02 88 1020.3
20190118214634 20 148 0.0 0.0 0.00 0.02 0.02 88 1020.4
20190118211615 20 148 0.0 0.0 0.00 0.02 0.02 87 1020.1
20190118210008 20 151 0.0 0.0 0.00 0.02 0.02 87 1020.1
20190118204641 21 152 0.0 0.0 0.00 0.02 0.02 87 1020.0
20190118203032 21 153 0.0 0.0 0.00 0.02 0.02 87 1020.0
20190118201635 22 153 0.0 0.0 0.00 0.02 0.02 86 1019.9
20190118194624 22 118 0.0 0.0 0.00 0.02 0.02 86 1019.6
20190118191622 23 112 0.0 0.0 0.00 0.02 0.02 85 1019.5
20190118184710 24 103 0.0 0.0 0.00 0.03 0.02 84 1019.3
20190118183014 25 103 0.0 0.0 0.00 0.03 0.02 83 1019.0
20190118181649 26 103 0.0 0.0 0.00 0.03 0.02 83 1018.9
20190118180054 26 103 0.0 0.0 0.00 0.03 0.02 82 1018.9
20190118174643 27 103 0.0 0.0 0.00 0.03 0.02 80 1018.6
20190118173015 27 103 0.0 0.0 0.00 0.03 0.02 79 1018.5
20190118171618 27 103 0.0 0.0 0.00 0.03 0.02 78 1018.3
20190118164631 28 103 0.0 0.0 0.00 0.03 0.02 76 1018.0
20190118163014 29 98 0.0 0.0 0.00 0.03 0.02 75 1017.8
20190118161605 29 105 0.0 0.0 0.00 0.03 0.02 74 1017.6
20190118154557 30 61 0.0 0.0 0.00 0.03 0.02 71 1017.4
20190118151611 31 137 0.0 0.0 0.00 0.03 0.02 71 1017.1
20190118150005 31 113 0.0 0.0 0.00 0.03 0.02 71 1016.8
20190118144720 31 113 0.0 0.0 0.00 0.04 0.02 72 1016.6
20190118141705 32 13 0.0 0.0 0.00 0.04 0.02 75 1016.2
20190118134705 32 265 0.0 0.0 0.00 0.05 0.02 79 1015.7
20190118133002 32 153 0.0 0.0 0.00 0.05 0.02 80 1015.7
20190118131623 32 155 0.0 0.0 0.00 0.05 0.02 80 1015.5
20190118130033 32 109 0.0 0.0 0.00 0.05 0.02 78 1015.3
20190118124600 32 42 0.0 0.0 0.00 0.06 0.02 76 1015.2
20190118121707 32 158 0.0 0.0 0.00 0.06 0.02 75 1014.8
20190118120010 32 40 0.0 0.0 0.00 0.06 0.02 76 1014.6
20190118114717 33 290 0.0 0.0 0.00 0.07 0.02 77 1014.3
20190118113042 32 241 0.0 0.0 0.01 0.07 0.02 79 1014.3
20190118111639 32 306 0.0 0.0 0.01 0.07 0.02 78 1014.2
20190118110046 33 270 0.0 0.0 0.02 0.07 0.02 79 1013.9
20190118103026 34 31 0.0 0.0 0.01 0.09 0.01 75 1013.4
20190118100202 33 22 0.0 0.0 0.00 0.08 0.00 86 1013.1
20190118093102 32 33 0.0 0.0 0.00 0.10 0.00 90 1012.6
20190118091535 32 277 0.0 0.0 0.00 0.10 0.00 89 1012.3
20190118090123 32 349 0.0 0.0 0.00 0.10 0.00 87 1012.1
20190118084511 32 38 0.0 0.0 0.00 0.14 0.00 87 1011.7